Regional Weather Roundup
Issued by NWS

Home | Current Version | Previous Version | Text Only | Print | Product List | Glossary Off
Versions: 1 2 3 4 5 6 7 8 9 10 11 12 13 14 15 16 17 18 19 20 21 22 23 24 25 26 27 28 29 30 31 32 33 34 35 36 37 38 39 40 41 42 43 44 45 46 47 48 49 50

000
ASUS43 KIND 302309
RWRIN

WEATHER ROUNDUP FOR INDIANA
NATIONAL WEATHER SERVICE INDIANAPOLIS IN
700 PM EDT SUN AUG 30 2015

NOTE: "FAIR" INDICATES FEW OR NO CLOUDS BELOW 12,000 FEET WITH NO
SIGNIFICANT WEATHER AND/OR OBSTRUCTIONS TO VISIBILITY.

* - STATION DOES NOT REPORT WEATHER SUCH AS PRECIPITATION OR FOG.

+ - STATION NOT QUALITY CONTROLLED BY THE NATIONAL WEATHER SERVICE.
    USE DATA WITH CAUTION...ESPECIALLY DEWPOINT AND RELATIVE
    HUMIDITY OBSERVATIONS.

INZ001>003-010>013-019-020-310000-
NORTHWEST INDIANA

CITY           SKY/WX    TMP DP  RH WIND       PRES   REMARKS
GARY /AIRPORT/ MOSUNNY   73  64  73 VRB7      30.03F
KNOX *+        SUNNY     77  66  69 CALM      30.02S
LA PORTE +     PTSUNNY   76  69  79 CALM      30.04S
MICHIGAN CITY+ SUNNY     72  63  73 CALM      30.04F
MONTICELLO +   PTSUNNY   80  72  76 CALM      30.01S
RENSSELAER +   SUNNY     79  72  78 W5        30.02F
VALPARAISO     PTSUNNY   76  68  76 NE3       30.03S

$$

LMZ046-743>745-310000-
SOUTHERN LAKE MICHIGAN

STATION/POSITION TIME  TEMP    WIND        PRES    WAVE
                       AIR SEA DIR/SP/G            HT
                 (UTC) (F)     (DEG/KT/KT) (MB)    (FT)
BURNS HARBOR     2200   72      40/  8/  9 1017.3F
MICHIGAN CITY    2200   69      10/  7/  8   N/A
5NW MICH CITY    2300   69 71   80/  6/  8   N/A     1

$$

INZ004-005-014>016-021>024-310000-
NORTH CENTRAL INDIANA

CITY           SKY/WX    TMP DP  RH WIND       PRES   REMARKS
GOSHEN         MOSUNNY   77  69  76 NW6       30.03S
LOGANSPORT +   SUNNY     81  61  50 CALM      30.02F
PERU/GRISSOM   MOSUNNY   82  69  63 W7        30.01F
ROCHESTER +    SUNNY     81  72  74 NW6       30.03S
SOUTH BEND     MOSUNNY   74  66  76 N5        30.04F
WARSAW +       SUNNY     77  70  78 NW8       30.03S

$$

INZ006>009-017-018-025>027-310000-
NORTHEAST INDIANA

CITY           SKY/WX    TMP DP  RH WIND       PRES   REMARKS
ANGOLA *+      PTSUNNY   79  72  78 NW5       30.03S
AUBURN +       SUNNY     81  64  57 SW3       30.03S
FORT WAYNE     MOSUNNY   81  68  64 W5        30.02F
HUNTINGTON +   SUNNY     81  63  54 W5        30.02S

$$

INZ028-029-035-036-043>045-051>053-310000-
WEST CENTRAL INDIANA

CITY           SKY/WX    TMP DP  RH WIND       PRES   REMARKS
CRAWFORDSVL +  SUNNY     80  59  47 SW5       30.03S
GREENCASTLE +  MOSUNNY   79  63  57 CALM      30.04S
LAFAYETTE      SUNNY     82  66  58 SW6       30.00F
TERRE HAUTE    MOSUNNY   84  65  52 S6        30.02S

$$

INZ030>032-037>040-046>048-054>057-064-065-310000-
CENTRAL INDIANA

CITY           SKY/WX    TMP DP  RH WIND       PRES   REMARKS
COLUMBUS       PTSUNNY   77  68  73 SW8       30.04R
FRANKFORT +    SUNNY     82  68  63 SW6       30.05S
GREENWOOD *+   PTSUNNY   82  63  51 SW5       30.04S
INDIANAPOLIS   PTSUNNY   81  64  56 SW10      30.02S
-EAGLE CREEK   CLOUDY    81  65  58 SW5       30.02F
KOKOMO *+      PTSUNNY   82  66  57 SW7       30.03S
MARION +       SUNNY     81  55  40 W8        30.03S
MT COMFORT *+  MOSUNNY   82  57  42 SW7       30.04S
SHELBYVILLE    MOSUNNY   84  66  54 SW6       30.03R
ZIONSVILLE +   SUNNY     81  65  58 SW3       30.04S

$$

INZ033-034-041-042-049-050-058-059-310000-
EAST CENTRAL INDIANA

CITY           SKY/WX    TMP DP  RH WIND       PRES   REMARKS
MUNCIE         MOSUNNY   81  64  56 W6        30.03S

$$

INZ060-061-067>069-081>083-085>088-310000-
SOUTHWEST INDIANA

CITY           SKY/WX    TMP DP  RH WIND       PRES   REMARKS
EVANSVILLE     PTSUNNY   82  68  62 SW8       30.03S
HUNTINGBURG *+ MOSUNNY   82  68  61 S8        30.03S
WASHINGTON +   PTSUNNY   78  69  74 CALM      30.03R

$$

INZ062-063-066-070>080-084-089>092-310000-
SOUTH CENTRAL AND SOUTHEAST INDIANA

CITY           SKY/WX    TMP DP  RH WIND       PRES   REMARKS
BLOOMINGTON    MOSUNNY   79  68  69 S6        30.05R
MADISON *+     MOSUNNY   79  64  61 S5        30.07S
NORTH VERNON + PTSUNNY   81  64  57 S16G22    30.06R
SEYMOUR +      MOSUNNY   84  66  54 SW5       30.03S

$$



USA.gov is the U.S. government's official web portal to all federal, state and local government web resources and services.